LiveATC.Net - Listen to live air traffic control over the Internet!


ICAO: KUUU  IATA: UUU   Airport: Newport State Airport
City: Newport   State/Province: Rhode Island
Country: United States   Continent: North America
KUUU METAR Weather: KUUU 040153Z AUTO VRB03KT 10SM SCT120 21/17 A2965 RMK AO2 LTG DSNT SW SLP039 T02060167
KUUU Flight Activity (FlightAware)
KUUU Airport Info   (iFlightPlanner)
KUUU VFR Sectional Chart   (iFlightPlanner) 
KUUU IFR Low Chart   (iFlightPlanner) 

KUUU CTAF/Del
Feed Status: UP   Listeners: 0
Listen in your browser - HTML5 player (in browser, HTML5)
Click here to listen with your own player (launches your MP3 player)
Archive Access: KUUU CTAF/Del
FacilityFrequency
Clearance Delivery (Providence Approach)127.250
Newport CTAF123.050

NOTICE

Unauthorized use prohibited. See LiveATC.net Terms of Service


Airport/ARTCC Code
Frequency Search
(e.g., 124.400, 128.75)
Site-wide search
 


Browse Feeds
Top 50 Feeds
Coverage Map
Bad Weather Areas

LiveATC FAQ
Offer LiveATC feed
Contact LiveATC.net
Press Inquiries

LiveATC on iPhone
LiveATC on Android

Windows Phone
Windows 8/10

LiveATC Mobile
(Mobile browser)

ATC Audio Archives
Interesting Recordings

LiveATC Forums


Home Page
About LiveATC.net
Make a Donation
Terms of Use
Privacy Policy

Canadian Air Freqs

AIRMETs/SIGMETs

FAA Airport Status
Nat'l Airspace Status
Arrival Demand Charts


Server Software By:
Icecast.org
Liquidsoap